This is the latest recevied weather packets stored in our database for station/object SP7QPD-1. If no packets are shown the sender has not sent any weather packets the latest 10 day(s).
| Time | Temp. | Humidity | Pressure | Rain* | Wind** | Luminosity | Snow |
|---|---|---|---|---|---|---|---|
| 1777966394 | 19.44° C | 53% | 1007.4 hPa | 0 mm | - | - | - |
| 1777965794 | 18.33° C | 56% | 1007.4 hPa | 0 mm | - | - | - |
| 1777965194 | 17.78° C | 57% | 1007.5 hPa | 0 mm | - | - | - |
| 1777964593 | 17.22° C | 58% | 1007.6 hPa | 0 mm | - | - | - |
| 1777963993 | 16.67° C | 59% | 1007.7 hPa | 0 mm | - | - | - |
| 1777963393 | 16.11° C | 60% | 1007.8 hPa | 0 mm | - | - | - |
| 1777962793 | 15.56° C | 62% | 1007.8 hPa | 0 mm | - | - | - |
| 1777962193 | 15.56° C | 62% | 1007.9 hPa | 0 mm | - | - | - |
| 1777961593 | 15° C | 63% | 1008 hPa | 0 mm | - | - | - |
| 1777960993 | 14.44° C | 65% | 1007.9 hPa | 0 mm | - | - | - |
| 1777960393 | 14.44° C | 66% | 1008 hPa | 0 mm | - | - | - |
| 1777959793 | 14.44° C | 68% | 1008.1 hPa | 0 mm | - | - | - |
| 1777959193 | 13.89° C | 69% | 1008.1 hPa | 0 mm | - | - | - |
| 1777958593 | 12.78° C | 71% | 1008 hPa | 0 mm | - | - | - |
| 1777957993 | 12.22° C | 72% | 1008.2 hPa | 0 mm | - | - | - |
| 1777957392 | 11.11° C | 72% | 1008.2 hPa | 0 mm | - | - | - |
| 1777956792 | 11.11° C | 71% | 1008 hPa | 0 mm | - | - | - |
| 1777956192 | 10.56° C | 71% | 1008.1 hPa | 0 mm | - | - | - |
| 1777955592 | 10.56° C | 71% | 1008.1 hPa | 0 mm | - | - | - |
| 1777954992 | 10° C | 71% | 1008.1 hPa | 0 mm | - | - | - |
| 1777954392 | 10° C | 72% | 1008.3 hPa | 0 mm | - | - | - |
| 1777953792 | 10° C | 72% | 1008.3 hPa | 0 mm | - | - | - |
| 1777953192 | 10° C | 72% | 1008.5 hPa | 0 mm | - | - | - |
| 1777952592 | 10° C | 72% | 1008.5 hPa | 0 mm | - | - | - |
| 1777951992 | 10° C | 72% | 1008.4 hPa | 0 mm | - | - | - |
* Rain latest hour (hover to see other rain measurements)
** Current wind speed in m/s (hover to see current wind gust speed)